Weather History for Ludington, MI

Change the Weather History Date:

Thursday, December 8, 2011

  Actual Average Record
Temperature  
Mean Temperature 32 °F -  
Max Temperature 33 °F 35 °F 54 °F (1966)
Min Temperature 30 °F 23 °F 7 °F (1958)
Degree Days  
Heating Degree Days 34    
Moisture  
Dew Point 19 °F    
Average Humidity 61    
Maximum Humidity 75    
Minimum Humidity 41    
Precipitation  
Precipitation 0.00 in - - ()
Sea Level Pressure  
Sea Level Pressure 30.07 in    
Wind  
Wind Speed 10 mph (West)    
Max Wind Speed 17 mph    
Max Gust Speed 26 mph    
Visibility 10 miles    
Events      
Averages and records for this station are not official NWS values.
T = Trace of Precipitation, MM = Missing Value Source: NWS Daily Summary

Daily Weather History Graph

Daily Weather History Graph

Search for Another Location

Airport:

Trip Planner

Search our weather history database for the weather conditions in past years. The results will help you decide how hot, cold, wet, or windy it might be!

Date:

Astronomy

Dec. 08, 2011 Rise Set
Actual Time 8:07 AM EST 5:07 PM EST
Civil Twilight 7:34 AM EST 5:40 PM EST
Nautical Twilight 6:58 AM EST 6:16 PM EST
Astronomical Twilight 6:23 AM EST 6:51 PM EST
Moon 3:47 PM EST (12/8) 6:17 AM EST (12/8)
Length of Visible Light 10h 06m
Length of Day
9h 00m
Waxing Gibbous, 97% of the Moon is Illuminated
Dec 8
Waxing Gibbous
Dec 10
Full
Dec 17
Last Quarter
Dec 24
New
Jan 1
First Quarter

Hourly Weather History & Observations

Time (EST) Temp. Windchill Dew Point Humidity Pressure Visibility Wind Dir Wind Speed Gust Speed Precip Events Conditions
12:15 AM 30.2 °F 24.3 °F 21.2 °F 69% 30.02 in 10.0 mi WNW 5.8 mph - N/A   Overcast
12:34 AM 30.2 °F 24.3 °F 21.2 °F 69% 30.03 in 10.0 mi WNW 5.8 mph - N/A   Overcast
12:55 AM 30.2 °F 26.7 °F 21.2 °F 69% 30.03 in 10.0 mi WNW 3.5 mph - N/A   Overcast
1:35 AM 30.2 °F 21.9 °F 21.2 °F 69% 30.02 in 10.0 mi West 9.2 mph - N/A   Overcast
1:55 AM 30.2 °F 24.3 °F 21.2 °F 69% 30.02 in 10.0 mi West 5.8 mph - N/A   Overcast
2:35 AM 30.2 °F 23.4 °F 23.0 °F 75% 30.03 in 10.0 mi WNW 6.9 mph - N/A   Overcast
2:55 AM 30.2 °F 23.4 °F 23.0 °F 75% 30.03 in 10.0 mi West 6.9 mph - N/A   Overcast
3:15 AM 30.2 °F 21.3 °F 23.0 °F 75% 30.04 in 10.0 mi West 10.4 mph - N/A   Overcast
3:35 AM 30.2 °F 21.9 °F 23.0 °F 75% 30.04 in 10.0 mi WSW 9.2 mph - N/A   Mostly Cloudy
3:55 AM 30.2 °F 20.8 °F 23.0 °F 75% 30.03 in 10.0 mi WSW 11.5 mph - N/A   Mostly Cloudy
4:14 AM 30.2 °F 20.8 °F 21.2 °F 69% 30.03 in 10.0 mi WSW 11.5 mph 20.7 mph N/A   Scattered Clouds
4:35 AM 30.2 °F 20.2 °F 21.2 °F 69% 30.03 in 10.0 mi WSW 12.7 mph 16.1 mph N/A   Scattered Clouds
4:55 AM 30.2 °F 21.3 °F 21.2 °F 69% 30.03 in 10.0 mi WSW 10.4 mph 18.4 mph N/A   Overcast
5:14 AM 30.2 °F 20.8 °F 21.2 °F 69% 30.03 in 10.0 mi WSW 11.5 mph 17.3 mph N/A   Overcast
5:35 AM 30.2 °F 20.2 °F 23.0 °F 75% 30.03 in 10.0 mi WSW 12.7 mph 16.1 mph N/A   Overcast
5:55 AM 32.0 °F 23.6 °F 23.0 °F 69% 30.03 in 10.0 mi WSW 10.4 mph 16.1 mph N/A   Overcast
6:14 AM 32.0 °F 22.5 °F 23.0 °F 69% 30.03 in 10.0 mi West 12.7 mph 20.7 mph N/A   Overcast
6:35 AM 32.0 °F 24.8 °F 23.0 °F 69% 30.04 in 10.0 mi WSW 8.1 mph 18.4 mph N/A   Overcast
6:55 AM 32.0 °F 23.6 °F 24.8 °F 75% 30.04 in 10.0 mi West 10.4 mph 16.1 mph N/A   Overcast
7:15 AM 32.0 °F 23.6 °F 24.8 °F 75% 30.05 in 10.0 mi WNW 10.4 mph 19.6 mph N/A   Overcast
7:35 AM 32.0 °F 22.5 °F 23.0 °F 69% 30.06 in 10.0 mi WNW 12.7 mph 18.4 mph N/A   Overcast
7:54 AM 30.2 °F 21.9 °F 23.0 °F 75% 30.07 in 10.0 mi WNW 9.2 mph - N/A   Overcast
8:15 AM 30.2 °F 22.6 °F 21.2 °F 69% 30.07 in 10.0 mi WNW 8.1 mph 18.4 mph N/A   Overcast
8:35 AM 30.2 °F 22.6 °F 21.2 °F 69% 30.07 in 10.0 mi WNW 8.1 mph - N/A   Overcast
8:54 AM 30.2 °F 20.8 °F 19.4 °F 64% 30.08 in 10.0 mi WNW 11.5 mph 16.1 mph N/A   Overcast
9:15 AM 30.2 °F 22.6 °F 17.6 °F 60% 30.10 in 10.0 mi WNW 8.1 mph 16.1 mph N/A   Overcast
9:35 AM 30.2 °F 21.9 °F 19.4 °F 64% 30.10 in 10.0 mi WNW 9.2 mph - N/A   Overcast
9:54 AM 30.2 °F 21.3 °F 17.6 °F 60% 30.11 in 10.0 mi WNW 10.4 mph 21.9 mph N/A   Mostly Cloudy
10:15 AM 30.2 °F 19.8 °F 19.4 °F 64% 30.13 in 10.0 mi NW 13.8 mph 19.6 mph N/A   Overcast
10:34 AM 30.2 °F 20.8 °F 19.4 °F 64% 30.13 in 10.0 mi West 11.5 mph 19.6 mph N/A   Overcast
10:55 AM 32.0 °F 23.6 °F 19.4 °F 60% 30.13 in 10.0 mi WNW 10.4 mph 20.7 mph N/A   Overcast
11:15 AM 32.0 °F 24.8 °F 19.4 °F 60% 30.13 in 10.0 mi NW 8.1 mph 20.7 mph N/A   Overcast
11:34 AM 30.2 °F 22.6 °F 17.6 °F 60% 30.13 in 10.0 mi WNW 8.1 mph 23.0 mph N/A   Overcast
11:55 AM 32.0 °F 22.1 °F 17.6 °F 55% 30.12 in 10.0 mi WNW 13.8 mph 19.6 mph N/A   Overcast
12:15 PM 32.0 °F 24.2 °F 17.6 °F 55% 30.11 in 10.0 mi WNW 9.2 mph 16.1 mph N/A   Scattered Clouds
12:34 PM 32.0 °F 24.2 °F 17.6 °F 55% 30.11 in 10.0 mi West 9.2 mph 21.9 mph N/A   Scattered Clouds
12:55 PM 33.8 °F 28.6 °F 15.8 °F 48% 30.10 in 10.0 mi West 5.8 mph 16.1 mph N/A   Scattered Clouds
1:14 PM 32.0 °F 23.6 °F 14.0 °F 48% 30.10 in 10.0 mi West 10.4 mph 16.1 mph N/A   Scattered Clouds
1:35 PM 32.0 °F 22.1 °F 15.8 °F 51% 30.09 in 10.0 mi West 13.8 mph 23.0 mph N/A   Scattered Clouds
1:55 PM 33.8 °F 25.3 °F 12.2 °F 41% 30.10 in 10.0 mi West 11.5 mph 17.3 mph N/A   Scattered Clouds
2:14 PM 33.8 °F 23.9 °F 14.0 °F 44% 30.10 in 10.0 mi West 15.0 mph 20.7 mph N/A   Scattered Clouds
2:35 PM 32.0 °F 24.2 °F 12.2 °F 44% 30.09 in 10.0 mi West 9.2 mph 25.3 mph N/A   Scattered Clouds
2:55 PM 33.8 °F 25.3 °F 14.0 °F 44% 30.09 in 10.0 mi WSW 11.5 mph 24.2 mph N/A   Scattered Clouds
3:15 PM 33.8 °F 24.3 °F 15.8 °F 48% 30.08 in 10.0 mi West 13.8 mph 24.2 mph N/A   Scattered Clouds
3:34 PM 33.8 °F 23.9 °F 14.0 °F 44% 30.08 in 10.0 mi West 15.0 mph 21.9 mph N/A   Mostly Cloudy
3:55 PM 33.8 °F 23.9 °F 15.8 °F 48% 30.07 in 10.0 mi West 15.0 mph 20.7 mph N/A   Mostly Cloudy
4:15 PM 33.8 °F 23.9 °F 15.8 °F 48% 30.07 in 10.0 mi WSW 15.0 mph 19.6 mph N/A   Mostly Cloudy
4:35 PM 33.8 °F 24.8 °F 17.6 °F 52% 30.07 in 10.0 mi West 12.7 mph 21.9 mph N/A   Overcast
4:55 PM 33.8 °F 24.3 °F 17.6 °F 52% 30.08 in 10.0 mi WSW 13.8 mph 23.0 mph N/A   Overcast
5:14 PM 33.8 °F 24.8 °F 17.6 °F 52% 30.08 in 10.0 mi West 12.7 mph 26.5 mph N/A   Mostly Cloudy
5:35 PM 33.8 °F 23.9 °F 17.6 °F 52% 30.08 in 10.0 mi West 15.0 mph 24.2 mph N/A   Overcast
5:54 PM 33.8 °F 24.3 °F 15.8 °F 48% 30.08 in 10.0 mi West 13.8 mph 24.2 mph N/A   Overcast
6:15 PM 33.8 °F 24.8 °F 19.4 °F 56% 30.08 in 10.0 mi West 12.7 mph 20.7 mph N/A   Mostly Cloudy
6:35 PM 33.8 °F 23.9 °F 17.6 °F 52% 30.08 in 10.0 mi West 15.0 mph 24.2 mph N/A   Mostly Cloudy
6:55 PM 33.8 °F 24.8 °F 15.8 °F 48% 30.09 in 10.0 mi West 12.7 mph 26.5 mph N/A   Overcast
7:15 PM 33.8 °F 23.2 °F 17.6 °F 52% 30.09 in 10.0 mi West 17.3 mph 25.3 mph N/A   Overcast
7:35 PM 33.8 °F 25.3 °F 21.2 °F 60% 30.10 in 10.0 mi WNW 11.5 mph 25.3 mph N/A   Overcast
7:54 PM 33.8 °F 27.0 °F 21.2 °F 60% 30.10 in 10.0 mi West 8.1 mph 20.7 mph N/A   Mostly Cloudy
8:15 PM 32.0 °F 24.2 °F 19.4 °F 60% 30.10 in 10.0 mi WNW 9.2 mph 21.9 mph N/A   Scattered Clouds
8:35 PM 32.0 °F 24.2 °F 19.4 °F 60% 30.10 in 10.0 mi WNW 9.2 mph 17.3 mph N/A   Scattered Clouds
8:54 PM 32.0 °F 22.5 °F 19.4 °F 60% 30.10 in 10.0 mi WNW 12.7 mph 18.4 mph N/A   Scattered Clouds
9:15 PM 32.0 °F 23.0 °F 19.4 °F 60% 30.11 in 10.0 mi West 11.5 mph 18.4 mph N/A   Scattered Clouds
9:54 PM 30.2 °F 21.3 °F 19.4 °F 64% 30.12 in 10.0 mi WNW 10.4 mph 18.4 mph N/A   Overcast
10:15 PM 30.2 °F 21.3 °F 15.8 °F 55% 30.12 in 10.0 mi WNW 10.4 mph 18.4 mph N/A   Overcast
10:35 PM 30.2 °F 20.2 °F 14.0 °F 51% 30.13 in 10.0 mi NW 12.7 mph 18.4 mph N/A   Scattered Clouds
10:54 PM 30.2 °F 21.3 °F 14.0 °F 51% 30.13 in 10.0 mi NW 10.4 mph 19.6 mph N/A   Scattered Clouds
11:15 PM 30.2 °F 21.9 °F 14.0 °F 51% 30.13 in 10.0 mi WNW 9.2 mph - N/A   Mostly Cloudy
11:35 PM 30.2 °F 21.3 °F 14.0 °F 51% 30.14 in 10.0 mi WNW 10.4 mph 16.1 mph N/A   Mostly Cloudy
11:54 PM 30.2 °F 19.3 °F 14.0 °F 51% 30.14 in 10.0 mi WNW 15.0 mph 18.4 mph N/A   Overcast